RH
24 24 23 23 22 21 20 22 24 26 28 29 28 28 29 32 32 31 32 35 36 36 36 38 38 37 37 39 40 41 43 49 55 57 56 51 47 44 42 42 42 43 43 44 45 46 47 47 46 44 43 41 42 43 45 45 46 48 48 47 46 46 46 45 44 43 44 46 46 47 49 51 50 48 47 46 46 46 47 47 47 47 47 47 47 47 47 48 48 49 49 48 47 46 45 43 42 40 39 38 38 38 38
31 29 28 27 26 23 21 20 22 24 28 29 29 29 30 31 29 29 32 37 39 39 38 37 35 34 35 39 41 42 42 46 50 53 54 50 46 43 42 42 42 42 43 44 45 47 47 47 47 45 43 42 42 43 45 46 47 47 48 47 47 47 47 46 45 45 45 49 50 51 51 53 53 51 49 48 47 47 47 48 48 48 48 48 48 48 48 48 48 48 48 48 48 47 46 45 44 43 41 40 38 38 38
38 38 36 34 32 30 27 23 22 23 26 28 29 29 29 28 27 27 30 34 38 39 39 36 34 33 33 35 37 39 40 42 45 48 49 47 44 42 40 40 40 41 43 44 45 46 47 47 47 46 44 42 42 43 45 47 47 47 47 47 47 48 48 48 47 46 46 49 51 52 52 53 54 53 51 48 47 47 48 48 48 48 47 48 48 48 48 48 47 47 48 48 48 48 47 46 46 45 44 43 42 40 39
40 41 41 41 41 39 35 30 26 25 25 28 29 29 28 28 28 29 31 33 36 38 39 37 35 32 31 31 34 36 37 38 41 43 45 45 43 41 39 39 39 40 42 43 44 45 46 46 46 46 44 43 42 43 45 47 48 48 47 47 48 48 49 49 48 47 47 49 51 51 52 54 54 54 53 49 47 47 47 47 47 47 47 47 48 49 49 48 48 47 48 48 48 48 48 47 47 47 46 45 45 44 42
37 38 39 42 44 43 41 36 32 29 27 29 29 30 31 32 33 35 38 39 38 38 37 37 35 33 32 33 36 39 40 40 42 43 44 45 45 44 42 42 41 41 42 42 43 44 44 45 45 45 44 43 43 43 44 46 48 48 48 47 48 49 50 51 50 50 50 51 52 51 52 55 57 57 55 51 48 46 46 46 46 47 46 47 47 48 49 50 50 49 48 48 48 48 49 48 48 48 48 47 47 46 45
31 32 34 38 41 42 41 40 39 36 32 31 31 32 35 35 36 37 41 41 38 36 35 36 36 35 34 35 38 42 47 49 50 50 50 49 47 47 47 46 45 44 43 42 42 42 42 43 43 44 44 43 43 43 44 45 46 48 48 48 48 49 51 52 51 51 51 52 52 52 51 55 59 61 58 53 49 46 45 45 46 46 46 46 46 47 49 50 51 51 50 49 49 49 49 49 49 49 49 48 47 46 46
26 27 29 33 36 38 38 40 41 41 37 34 33 34 37 36 36 35 35 34 32 32 32 33 34 35 35 35 37 41 47 52 55 56 55 53 50 49 51 50 49 48 47 45 43 41 39 40 41 42 43 43 43 43 44 44 45 46 47 48 49 49 51 52 52 52 52 52 52 53 53 56 59 62 62 56 51 47 45 45 45 45 45 45 45 46 48 49 50 51 52 51 50 49 48 48 48 48 48 48 47 46 45
27 28 28 32 34 35 36 38 39 39 36 34 34 35 37 37 35 33 30 29 29 29 30 31 32 33 35 36 36 38 41 47 52 54 52 50 47 45 45 47 49 49 49 49 46 43 38 38 38 39 41 41 42 43 44 44 44 45 46 47 48 50 51 52 53 53 53 52 52 53 56 58 60 62 62 58 54 50 47 46 45 45 45 45 45 45 46 48 49 50 51 51 51 50 48 48 47 47 47 47 45 44 43
30 29 29 32 34 37 38 38 37 36 33 32 32 33 35 35 34 32 29 29 30 31 33 34 34 35 36 36 35 34 34 39 43 46 46 44 41 38 38 40 43 46 48 49 48 46 41 37 36 37 38 40 41 42 43 44 44 44 45 46 48 49 51 52 53 54 54 53 52 53 58 61 63 63 62 60 58 54 51 49 47 46 45 45 45 45 45 46 47 49 50 51 51 50 49 48 47 46 46 46 45 43 42
31 31 30 31 33 35 36 36 36 36 34 32 32 32 33 33 32 31 31 33 36 38 39 40 40 39 37 37 36 36 36 37 39 39 39 38 36 34 33 35 38 42 46 47 49 49 46 40 37 36 37 38 40 41 42 43 43 44 44 46 47 49 51 52 52 53 54 54 53 53 57 61 65 67 64 62 60 58 56 53 51 48 46 46 45 45 45 45 46 47 49 50 50 51 51 49 48 46 46 45 44 43 41
33 32 31 31 31 30 30 32 35 37 37 34 32 32 33 32 32 32 33 35 37 39 41 42 41 39 37 37 37 37 38 40 40 39 37 34 33 32 32 33 37 42 46 47 49 49 46 42 39 38 37 38 39 40 41 42 43 43 43 45 47 49 51 51 52 52 54 54 54 54 55 60 65 67 65 63 61 60 59 57 55 51 48 47 46 46 45 45 46 46 47 48 49 50 50 49 48 46 45 44 44 43 42
34 33 32 32 31 31 30 31 33 36 37 35 33 32 32 32 33 34 35 35 35 37 39 39 39 38 37 37 38 39 40 42 43 42 39 36 33 32 31 34 40 47 52 50 48 46 44 42 40 39 38 38 39 40 41 41 42 42 42 44 46 48 50 50 51 51 53 54 54 55 55 58 63 66 65 64 62 61 61 60 58 54 51 49 48 47 46 45 45 45 46 47 48 49 49 48 47 46 45 43 43 43 42
33 32 32 31 31 30 30 31 33 34 35 35 34 33 32 32 33 34 34 32 32 32 34 34 35 36 38 41 44 45 46 47 47 47 44 41 38 34 32 35 41 49 54 52 48 43 40 40 40 40 39 39 39 40 41 42 42 41 41 43 44 47 50 50 50 50 51 53 55 55 55 58 62 65 66 64 62 61 61 61 59 57 53 51 49 47 46 45 44 45 45 46 47 47 48 47 46 45 44 42 41 41 40
32 31 31 30 30 30 31 32 33 35 36 35 35 34 33 33 32 32 31 30 29 29 30 31 31 33 36 40 45 48 50 50 50 49 47 45 42 38 35 35 40 46 51 51 47 41 38 38 38 38 38 39 39 40 40 41 41 41 41 41 43 45 48 49 49 49 50 52 54 55 56 57 60 64 67 64 63 61 61 60 60 58 55 52 50 48 46 44 44 44 45 46 46 47 47 46 45 44 43 41 39 38 36
33 32 31 31 30 31 31 33 34 35 36 36 35 35 35 35 35 34 33 32 31 31 30 31 31 32 33 36 41 45 48 48 48 47 47 45 43 40 36 36 38 41 45 45 43 40 37 37 37 36 37 37 38 39 40 40 41 41 41 41 41 43 46 48 48 48 49 52 53 55 56 56 58 61 65 65 64 62 60 60 59 58 56 53 51 49 46 44 43 43 44 45 46 46 47 46 45 43 40 37 35 32 31
34 34 33 32 31 31 32 33 34 36 37 37 38 38 38 38 38 38 38 37 37 36 35 35 34 34 33 33 35 38 41 42 42 42 42 42 41 39 37 36 37 38 39 40 39 38 37 36 36 36 36 36 37 37 38 39 40 40 41 41 41 41 43 45 46 47 48 50 52 54 55 56 58 60 64 65 64 63 61 60 58 57 56 54 51 49 46 43 42 42 44 45 45 46 45 45 42 40 36 33 30 27 26
37 36 35 34 33 33 33 34 35 37 38 39 40 41 40 40 40 40 39 39 39 38 38 38 37 37 36 35 35 36 37 38 38 38 38 38 38 38 37 36 36 36 37 37 37 37 36 36 36 36 36 35 35 35 36 37 38 39 40 41 41 41 42 43 44 45 47 49 51 53 54 59 60 61 64 64 64 63 62 60 59 58 56 54 51 48 45 43 41 41 43 44 44 44 43 41 39 35 32 29 28 26 25
40 40 40 39 37 36 35 36 37 39 40 41 42 42 42 41 40 40 39 39 39 39 38 38 38 38 38 37 37 37 37 37 37 37 37 37 37 37 38 37 37 36 36 36 37 37 37 37 36 36 35 34 34 34 35 35 37 38 39 40 41 41 41 42 43 44 45 48 50 52 52 57 60 63 65 66 65 64 64 61 60 58 57 55 52 48 45 42 41 41 42 43 43 42 41 38 34 31 28 28 29 29 28
44 44 44 45 44 43 41 41 42 43 43 43 43 43 43 43 42 42 41 40 40 39 38 38 38 38 38 38 37 37 37 36 36 36 35 35 35 36 36 37 37 37 36 37 37 38 37 37 37 36 35 34 33 33 34 34 35 36 38 39 40 41 41 42 42 42 43 46 48 51 52 55 58 61 63 64 66 67 66 63 60 59 58 55 52 49 45 42 41 40 41 42 42 41 38 34 30 27 25 28 31 33 32
51 51 50 52 53 52 50 49 48 47 46 45 45 44 45 44 44 44 44 43 42 41 40 39 39 38 38 38 38 37 37 36 36 36 36 35 35 35 35 35 36 36 36 37 38 38 38 38 37 36 35 34 33 33 34 34 35 36 37 38 40 41 42 42 42 42 42 43 46 48 51 53 56 59 60 63 66 67 65 63 61 59 58 57 53 50 46 43 42 41 41 41 40 39 35 31 26 23 23 27 31 34 34
61 62 62 63 63 61 59 57 56 54 52 50 48 47 46 45 45 46 46 45 44 44 43 42 40 39 38 39 39 39 38 38 37 37 36 36 36 36 35 34 34 35 36 37 38 39 39 39 38 37 36 34 34 33 34 34 35 36 36 37 39 40 41 41 41 41 41 41 43 44 47 49 53 56 60 65 68 68 65 63 61 60 59 58 55 51 47 45 44 42 41 41 40 38 34 29 25 22 22 25 29 33 35
70 73 74 74 73 71 69 67 66 63 59 57 55 52 49 46 45 44 44 44 43 43 42 42 40 39 38 40 40 41 40 39 38 37 36 36 36 36 35 35 34 34 34 36 37 39 41 41 40 39 37 35 34 34 34 34 35 35 36 37 38 39 40 40 41 40 40 40 40 41 43 46 49 54 60 67 70 71 67 64 63 62 60 59 57 53 50 48 46 45 43 42 40 38 34 29 24 21 21 24 28 31 34
70 73 75 80 81 80 77 75 71 66 61 60 59 58 54 49 45 43 42 43 42 41 40 39 38 37 37 38 40 40 40 39 38 37 36 36 35 35 35 35 35 34 34 34 35 38 41 43 43 42 40 37 35 35 34 34 35 35 36 37 37 38 38 39 40 40 40 39 38 38 39 43 48 54 58 66 71 73 69 68 66 65 63 62 59 56 52 50 49 47 46 44 42 40 36 31 26 23 22 24 27 30 34
63 66 68 72 74 74 70 68 66 64 64 63 62 61 58 54 50 47 46 46 47 46 43 40 38 37 36 36 36 37 37 38 38 38 37 36 36 35 35 35 35 35 34 34 34 36 40 43 44 44 43 39 37 35 35 34 34 34 35 37 37 38 38 38 39 39 40 38 37 38 39 43 48 53 57 62 66 69 67 68 68 67 66 65 63 60 56 54 52 51 49 47 45 43 39 34 29 26 24 25 28 30 34
55 57 59 61 61 60 57 56 56 57 61 65 66 65 63 60 57 55 54 54 52 49 43 39 37 36 36 35 36 36 38 39 39 39 38 38 37 36 36 35 35 35 35 34 34 35 37 41 44 45 44 41 38 36 36 35 34 34 34 36 37 38 38 38 38 39 39 38 38 39 41 45 49 53 56 59 61 63 63 65 66 67 66 66 65 63 60 57 55 54 52 50 48 46 43 38 33 29 27 27 29 31 34
50 51 52 54 53 53 51 51 51 52 55 61 65 66 65 63 62 60 59 56 51 45 38 37 36 36 36 37 37 37 37 37 37 38 39 39 39 38 37 36 36 36 36 35 35 34 35 38 41 43 44 41 38 37 37 36 34 33 33 35 36 37 38 38 38 38 39 39 38 39 42 47 50 53 55 58 59 60 61 63 64 64 65 65 64 63 62 60 58 56 55 53 51 49 46 41 36 32 29 29 30 32 34
51 51 51 50 50 49 49 50 51 52 54 57 60 62 62 61 60 58 56 53 48 44 41 40 39 38 37 37 37 37 37 37 37 37 38 38 39 39 38 38 37 37 37 37 36 35 34 35 37 38 40 39 38 38 39 38 35 34 33 34 35 36 37 38 38 38 38 39 38 38 41 46 50 53 55 57 60 63 64 65 64 64 63 63 62 62 61 60 59 58 56 55 53 52 49 44 39 35 31 30 30 32 35
52 52 52 51 51 50 49 49 50 51 54 56 57 57 56 53 52 51 51 50 50 49 49 47 45 42 39 38 37 36 36 37 38 38 37 37 38 39 39 39 38 38 38 38 38 37 35 34 34 34 35 36 37 38 40 39 37 35 33 33 34 35 37 37 38 38 38 38 38 38 40 46 50 53 55 58 62 64 65 66 65 64 63 61 59 58 58 58 58 57 56 55 54 53 50 46 41 36 32 30 30 31 34
50 51 53 53 53 53 52 51 51 50 50 51 52 51 49 46 44 45 47 48 50 52 53 53 51 48 44 41 39 36 34 35 36 37 37 38 37 38 38 38 39 39 39 39 39 38 37 36 35 34 34 35 36 38 39 39 39 37 35 34 33 34 35 37 37 38 38 38 37 37 38 44 49 53 57 61 62 63 64 64 63 62 63 62 59 56 54 54 55 55 55 54 53 52 51 48 43 38 33 30 29 30 33
51 51 52 54 54 54 54 53 53 52 51 50 49 48 47 45 43 42 43 45 48 51 53 54 54 53 51 48 45 41 38 34 33 33 36 37 38 37 36 37 37 38 39 39 39 39 39 38 37 36 35 35 35 36 38 39 39 38 37 35 34 34 34 35 37 37 37 37 37 36 36 41 47 52 57 59 61 62 64 64 64 64 64 63 60 56 52 51 51 52 52 52 52 52 51 49 45 40 35 31 29 30 32
53 53 53 54 54 54 55 54 54 54 53 52 51 50 48 47 46 45 43 43 45 47 50 52 53 54 54 53 51 49 45 40 35 32 32 34 36 37 37 36 37 37 38 38 39 39 39 39 39 38 37 36 36 36 36 37 38 38 37 36 35 34 33 34 35 36 37 37 37 36 35 38 44 49 54 57 58 59 61 62 63 64 64 66 64 60 55 51 49 50 50 50 50 50 51 50 47 42 37 32 30 29 31
52 52 53 53 54 54 54 54 53 53 54 53 52 51 49 48 47 47 46 45 44 43 43 44 47 50 53 54 54 53 51 48 43 37 33 32 33 35 37 37 37 37 37 38 38 39 39 39 39 39 39 38 37 37 36 36 36 37 37 36 35 34 34 34 34 35 36 36 36 35 35 35 40 46 52 55 58 59 60 61 62 64 63 65 64 63 60 55 52 50 49 49 48 49 50 50 48 44 39 34 30 28 29
47 49 50 51 52 52 52 52 52 53 53 53 53 52 50 48 47 46 46 45 45 45 44 44 44 45 48 50 52 53 54 53 51 46 40 36 34 34 36 37 36 36 35 36 38 38 39 40 40 40 40 39 39 38 38 37 36 36 36 36 35 35 34 34 34 34 35 36 36 35 35 34 36 40 46 51 56 59 61 62 62 62 63 63 64 63 63 61 57 54 51 49 48 48 49 49 48 46 42 36 31 28 27
41 43 45 47 47 48 48 49 50 50 51 52 52 52 52 51 49 47 45 45 45 45 44 43 43 43 43 45 47 49 51 54 55 54 49 43 39 36 35 35 35 35 35 35 36 37 38 39 39 40 40 40 39 39 38 37 37 36 36 36 36 35 35 35 34 34 34 35 35 35 35 34 35 36 40 46 50 54 57 60 60 60 60 62 63 63 64 64 62 59 56 52 50 49 49 49 49 48 45 39 34 29 27
38 40 41 42 43 44 44 45 46 46 47 48 48 49 50 51 51 49 46 44 44 43 43 43 43 42 42 43 44 47 52 56 58 58 55 49 44 40 37 34 33 33 33 35 35 36 36 37 38 38 39 39 39 39 38 38 37 36 36 36 36 36 36 36 35 34 33 34 34 34 34 35 35 35 36 40 44 49 53 56 57 58 59 59 59 61 63 63 63 62 60 56 53 51 51 51 50 50 48 43 37 33 30
38 39 40 40 41 41 42 42 42 43 43 43 44 45 45 47 49 50 50 47 44 42 42 42 42 42 42 41 42 44 48 53 58 60 59 53 48 42 38 36 35 34 33 34 35 36 35 35 36 36 37 38 38 38 38 37 37 36 35 35 36 37 37 37 36 35 34 33 33 34 34 35 35 36 36 36 39 44 48 51 53 55 58 58 59 60 60 60 60 60 60 59 57 55 53 52 52 52 50 47 42 37 34
38 39 40 41 41 41 41 40 40 40 40 40 40 41 41 42 44 47 49 48 45 43 42 42 42 42 42 41 42 43 45 50 55 59 59 55 50 45 42 42 42 39 36 36 36 37 36 35 34 34 35 36 37 37 37 37 36 36 35 35 36 37 37 37 36 35 35 34 33 34 34 35 35 36 36 36 37 40 44 47 51 53 55 56 57 58 58 58 58 59 58 58 58 58 56 54 53 53 52 50 46 42 39
35 37 38 40 41 41 41 40 39 39 38 38 38 38 39 38 39 40 43 44 43 43 42 42 42 41 41 41 41 42 43 47 52 57 59 57 53 50 48 48 46 43 41 41 41 41 40 36 34 33 34 34 35 36 36 37 37 36 35 34 34 35 36 36 36 36 35 35 34 34 34 35 35 36 36 36 36 37 40 44 48 50 52 54 55 56 56 57 58 57 55 56 58 59 59 57 55 54 53 52 50 47 45
34 35 36 38 40 41 42 41 40 40 39 39 39 38 38 38 37 36 36 37 38 39 40 41 41 41 40 40 40 40 42 45 50 55 58 58 56 54 51 50 47 46 46 49 50 49 45 40 36 34 33 33 33 34 35 36 37 37 37 35 34 33 34 35 35 35 35 35 35 35 35 35 36 36 36 36 36 36 37 40 43 45 47 49 51 54 54 55 57 57 55 55 56 58 60 60 58 56 53 52 52 51 50
33 34 35 36 38 40 40 41 41 41 40 40 40 40 39 39 38 36 35 34 34 34 35 37 38 38 38 38 38 39 39 42 47 51 55 58 58 56 52 51 49 47 47 53 56 56 53 47 42 38 35 34 33 32 33 34 35 36 36 36 34 33 33 33 34 35 35 35 35 35 35 36 36 36 36 36 36 36 36 37 39 40 41 43 47 50 52 52 53 55 55 54 55 56 58 60 59 57 54 53 52 52 52
31 32 32 34 35 37 39 40 41 41 41 40 40 40 40 39 39 37 35 34 33 32 32 33 34 34 34 34 35 36 37 39 42 46 50 54 56 55 53 53 51 48 45 51 57 61 59 55 50 44 39 35 33 31 31 31 32 33 34 34 34 33 32 32 33 34 35 35 35 35 35 36 36 37 37 36 36 35 35 36 36 37 38 40 44 48 51 51 51 52 53 54 54 55 56 57 58 57 56 54 52 51 52
29 30 31 31 32 34 35 38 39 40 41 41 41 41 41 40 39 38 36 34 33 32 31 33 33 32 31 30 30 31 33 35 38 41 44 47 50 51 52 52 51 48 45 46 52 57 58 57 54 49 43 37 33 31 30 29 29 30 30 32 32 33 33 32 32 33 34 34 34 34 35 36 37 37 37 36 35 35 35 35 35 35 35 38 42 46 50 51 51 51 51 52 53 55 56 55 54 55 55 54 53 52 51
25 26 28 29 29 30 32 33 36 38 40 41 42 42 42 41 41 39 38 35 34 32 31 32 33 34 32 29 28 28 28 30 32 35 38 41 43 45 46 48 48 47 45 44 46 48 51 51 49 46 41 37 33 30 29 28 28 28 28 29 30 32 34 33 32 32 32 32 33 34 35 36 37 36 35 34 34 34 34 35 35 34 34 37 40 43 47 50 52 52 50 50 50 51 51 51 51 52 53 53 53 53 52
21 22 23 25 26 27 28 30 32 34 37 40 42 42 42 42 41 40 39 37 35 33 32 32 33 35 36 33 30 28 27 27 28 30 33 35 37 39 40 41 42 42 42 42 42 42 43 42 41 39 37 34 32 30 28 28 28 28 27 28 29 31 33 34 33 32 31 30 31 32 33 35 36 35 33 32 31 32 33 35 34 33 33 35 38 40 43 48 51 52 50 47 46 45 45 47 50 52 53 52 53 53 53
21 20 21 22 23 25 26 27 28 30 33 36 39 40 41 41 40 40 39 38 37 35 34 33 33 35 37 37 35 32 29 28 27 28 30 32 33 35 36 36 36 36 37 37 38 38 38 38 37 35 33 31 30 28 27 27 28 28 28 27 28 29 31 33 33 32 30 29 29 30 31 33 34 33 32 30 29 30 33 34 34 32 31 34 35 38 40 43 47 49 50 46 43 41 42 46 50 53 53 52 52 53 53
21 20 20 20 21 22 23 23 24 25 28 31 34 36 38 39 39 39 39 38 37 36 35 35 34 35 37 39 40 39 36 33 30 29 29 30 31 33 33 33 33 33 33 33 34 35 36 36 35 34 32 30 28 26 25 25 26 28 28 27 27 28 29 31 32 32 30 28 27 27 28 30 31 32 32 30 30 31 33 34 34 33 33 34 36 38 39 40 42 45 46 44 42 41 41 47 51 53 53 52 53 53 53
21 20 19 19 19 20 20 21 21 22 23 26 29 32 34 36 37 37 38 37 37 36 36 36 36 36 37 39 41 42 42 39 37 34 32 31 32 33 33 32 31 30 31 31 31 33 34 34 34 33 32 30 28 26 24 24 25 27 28 28 28 28 28 30 31 32 31 29 28 27 26 27 28 29 31 31 31 32 34 36 37 39 40 42 43 43 42 42 42 42 43 42 40 39 42 47 51 53 54 54 54 54 53
20 20 19 19 18 18 18 18 19 19 20 22 24 27 29 31 33 34 35 35 36 36 35 36 36 36 37 38 40 42 43 43 42 40 37 36 35 35 35 34 32 31 30 31 32 32 33 33 33 33 32 32 30 29 27 26 27 28 29 29 29 29 29 30 31 32 33 32 31 29 28 27 26 26 28 29 31 34 37 40 43 47 50 53 54 52 49 46 45 44 43 41 39 37 39 45 49 53 55 56 57 57 56
19 19 18 18 17 17 17 16 16 17 17 19 20 23 25 27 29 30 31 32 33 34 35 35 35 36 37 38 39 40 42 43 44 43 42 41 40 39 38 37 36 35 33 33 34 35 34 34 33 33 33 33 33 32 31 31 31 31 30 30 29 29 29 30 31 32 34 34 34 33 32 30 28 27 26 27 31 35 41 46 50 54 58 62 62 60 55 51 49 47 46 42 39 36 36 41 46 51 55 58 60 60 60
19 18 18 17 17 16 16 16 15 15 15 16 17 19 21 23 25 27 28 29 30 32 34 34 35 36 37 38 38 39 40 42 44 45 45 44 43 43 42 41 40 38 37 36 36 37 37 36 35 34 34 33 34 34 34 35 33 32 30 29 28 28 28 29 30 32 34 35 36 35 34 33 31 30 28 29 33 39 46 51 54 58 62 65 64 61 55 51 48 46 45 42 38 35 34 37 42 48 54 58 61 62 62
20 19 18 18 17 17 16 15 15 14 14 14 15 16 18 20 22 24 25 26 27 29 32 34 36 38 39 38 37 38 39 42 43 44 45 44 44 44 44 44 44 42 40 38 38 39 39 38 37 36 35 34 34 34 35 35 34 33 30 29 27 26 26 27 28 30 33 36 37 38 37 35 34 32 31 33 38 45 51 55 58 61 64 65 64 60 54 48 44 42 40 38 35 33 31 34 39 45 52 57 60 62 64
23 22 21 20 19 18 18 17 16 16 15 15 14 15 16 18 20 22 23 24 25 27 29 34 37 38 38 38 38 38 38 41 42 43 45 45 44 44 45 47 47 46 44 43 41 40 39 39 38 37 36 35 34 34 34 34 33 32 31 28 27 26 25 25 25 27 30 34 38 40 39 37 36 34 33 34 39 46 54 58 60 62 64 66 66 61 54 46 40 37 34 33 32 30 30 31 35 41 49 54 58 62 64
26 24 23 22 21 20 20 19 19 18 18 17 16 15 15 16 18 20 22 23 24 25 26 31 36 38 36 35 37 38 37 39 41 42 43 44 45 46 48 50 50 50 47 46 43 41 40 38 36 35 35 34 34 33 33 32 32 31 30 28 27 25 25 24 24 24 26 31 36 40 41 39 37 36 36 36 37 41 48 53 56 58 61 62 61 58 52 44 38 33 30 29 28 28 29 30 33 38 44 50 55 59 62
28 27 26 25 24 23 23 22 21 21 21 20 19 18 16 16 17 19 21 22 24 25 27 28 32 34 34 32 33 35 36 37 39 41 42 42 44 46 48 51 53 54 51 47 45 43 40 37 36 34 33 33 33 33 32 32 31 30 29 28 27 26 25 24 24 24 25 29 35 41 43 40 38 37 40 41 40 39 39 41 43 45 48 50 50 48 44 40 35 31 27 26 26 27 28 31 34 37 39 43 48 54 59
29 28 27 27 26 26 25 24 24 23 23 22 21 20 19 17 17 18 20 22 24 26 28 29 31 32 34 33 32 32 34 34 37 39 41 41 42 44 48 51 55 56 55 50 47 45 42 39 37 35 33 32 32 32 32 31 31 30 29 28 27 26 25 25 25 26 26 28 34 40 46 42 39 37 40 45 47 45 42 38 36 35 35 36 36 36 36 34 32 29 27 26 26 27 28 32 35 38 38 39 42 46 52
28 28 27 27 26 26 26 25 25 24 23 23 23 22 21 20 19 18 18 20 23 26 29 31 32 34 36 36 36 34 33 34 35 37 40 41 41 43 45 50 55 58 58 53 48 45 42 41 39 37 34 32 31 31 30 30 30 30 30 30 29 28 27 26 26 26 27 28 32 38 44 44 41 38 38 43 46 47 46 44 42 39 37 35 34 33 32 32 31 31 29 29 28 28 29 33 36 38 39 38 38 41 45
26 26 26 25 25 25 25 24 24 23 23 22 23 23 22 21 20 19 18 19 21 24 28 31 34 35 37 39 39 38 36 35 34 35 37 39 41 42 43 48 54 58 57 52 49 45 41 41 41 39 36 33 31 30 29 29 29 30 30 31 31 31 30 29 28 28 28 29 31 34 39 41 41 39 37 39 42 45 46 46 45 44 43 40 38 35 32 32 34 34 34 33 32 32 32 34 36 38 38 37 37 38 40
25 24 24 24 24 24 23 23 22 22 22 22 22 22 22 21 21 20 18 18 19 22 26 30 34 36 38 40 42 42 41 38 36 35 35 38 40 42 43 47 51 55 57 53 50 47 44 41 40 40 38 35 33 31 29 29 29 30 30 32 33 34 34 33 32 31 30 30 31 32 35 37 38 38 37 37 39 40 42 43 44 44 44 42 39 36 33 33 34 36 37 36 35 35 34 35 36 37 37 36 36 36 37
23 23 23 23 23 22 22 22 21 21 20 20 21 21 22 22 21 21 20 18 18 20 24 29 34 37 39 40 42 44 44 42 40 38 37 38 39 40 42 45 47 50 53 53 50 48 47 45 43 41 40 38 36 34 32 30 30 30 31 32 34 36 37 37 36 34 33 32 32 33 33 34 35 35 35 35 36 37 38 39 41 41 41 39 37 35 33 33 34 36 38 37 37 37 37 36 36 36 35 34 34 35 36
23 23 23 23 22 22 21 21 20 20 20 19 19 20 21 22 22 21 21 19 18 19 21 27 32 37 40 41 43 44 45 43 42 41 40 40 39 38 40 42 45 47 50 51 50 48 46 47 45 43 40 40 39 37 35 33 31 30 31 33 35 37 38 39 39 38 36 35 34 34 34 34 34 33 33 33 33 34 35 36 38 38 39 38 36 34 32 33 35 38 40 39 39 38 38 38 37 36 35 34 34 34 35
24 24 24 23 22 22 21 20 20 19 19 19 19 19 20 21 21 21 21 20 19 19 19 23 28 35 41 44 46 45 44 44 43 42 42 42 41 39 39 41 43 45 47 49 49 48 45 45 45 43 41 41 40 39 38 36 33 32 30 32 34 36 38 39 40 39 39 37 36 35 34 34 34 33 32 32 32 32 33 34 35 37 37 36 35 34 33 35 39 44 47 46 43 41 40 40 39 37 35 34 34 34 35